This is the latest recevied weather packets stored in our database for station/object KF4UQS-14. If no packets are shown the sender has not sent any weather packets the latest 10 day(s).
| Time | Temp. | Humidity | Pressure | Rain* | Wind** | Luminosity | Snow |
|---|---|---|---|---|---|---|---|
| 1778278847 | 17.22° C | 59% | 1015.2 hPa | 0 mm | - | 159 W/m² | - |
| 1778278543 | 17.22° C | 58% | 1015.5 hPa | 0 mm | - | 178 W/m² | - |
| 1778278239 | 17.22° C | 58% | 1015.6 hPa | 0 mm | - | 186 W/m² | - |
| 1778277936 | 17.22° C | 55% | 1015.4 hPa | 0 mm | - | 197 W/m² | - |
| 1778277632 | 17.22° C | 57% | 1015.4 hPa | 0 mm | - | 200 W/m² | - |
| 1778277329 | 17.22° C | 55% | 1015.6 hPa | 0 mm | - | 230 W/m² | - |
| 1778277026 | 17.22° C | 54% | 1015.5 hPa | 0 mm | - | 243 W/m² | - |
| 1778276723 | 17.22° C | 56% | 1015.7 hPa | 0 mm | - | 259 W/m² | - |
| 1778276419 | 17.22° C | 57% | 1015.4 hPa | 0 mm | - | 276 W/m² | - |
| 1778276117 | 17.78° C | 59% | 1015.4 hPa | 0 mm | - | 292 W/m² | - |
| 1778275812 | 17.78° C | 59% | 1015.1 hPa | 0 mm | - | 307 W/m² | - |
| 1778275509 | 17.78° C | 57% | 1015.1 hPa | 0 mm | - | 322 W/m² | - |
| 1778275206 | 17.78° C | 57% | 1015.1 hPa | 0 mm | - | 338 W/m² | - |
| 1778274901 | 17.78° C | 56% | 1015.1 hPa | 0 mm | - | 355 W/m² | - |
| 1778274598 | 17.78° C | 59% | 1015.1 hPa | 0 mm | - | 372 W/m² | - |
| 1778274294 | 18.33° C | 57% | 1015.3 hPa | 0 mm | - | 384 W/m² | - |
| 1778273990 | 18.33° C | 61% | 1015.3 hPa | 0 mm | - | 400 W/m² | - |
| 1778273688 | 18.33° C | 60% | 1015.4 hPa | 0 mm | - | 411 W/m² | - |
| 1778273384 | 18.33° C | 58% | 1015.2 hPa | 0 mm | - | 431 W/m² | - |
| 1778273082 | 17.78° C | 61% | 1015.4 hPa | 0 mm | - | 448 W/m² | - |
| 1778272777 | 17.78° C | 60% | 1015.3 hPa | 0 mm | - | 460 W/m² | - |
| 1778272474 | 17.78° C | 59% | 1015.4 hPa | 0 mm | - | 477 W/m² | - |
| 1778272169 | 18.33° C | 57% | 1015.3 hPa | 0 mm | - | 492 W/m² | - |
| 1778271867 | 18.33° C | 58% | 1015.2 hPa | 0 mm | - | 505 W/m² | - |
| 1778271564 | 18.89° C | 56% | 1015.3 hPa | 0 mm | - | 519 W/m² | - |
* Rain latest hour (hover to see other rain measurements)
** Current wind speed in m/s (hover to see current wind gust speed)